Location: Lombard
(41.8800°N, 88.0080°W)
Time: 00:36:52
(UTC-05:00)

Transit 2A - Pass Details

Date: 14 February 2023
Orbit: 591 x 964 km, 66.7° (Epoch: 20 March)

Event Time Altitude Azimuth Distance (km) Brightness Sun altitude
Rises 01:12:56 0° 308° (NW) 3,606 - -57.8°
Reaches altitude 10° 01:17:23 10° 279° (W) 2,692 - -57.3°
Maximum altitude 01:19:30 12° 259° (W) 2,565 - -57.1°
Drops below altitude 10° 01:21:38 10° 240° (WSW) 2,696 - -56.9°
Sets 01:26:07 0° 210° (SSW) 3,620 - -56.4°
